Weather History for Oakland, MD

Change the Weather History Date:

Thursday, August 8, 2013

  Actual Average (KMGW) Record (KMGW)
Temperature  
Mean Temperature 68 °F 73 °F  
Max Temperature 75 °F 83 °F 92 °F (2007)
Min Temperature 62 °F 63 °F 48 °F (1975)
Degree Days  
Heating Degree Days 0 0  
Month to date heating degree days 0  
Since 1 June heating degree days 34  
Since 1 July heating degree days 3  
Cooling Degree Days 4 8  
Month to date cooling degree days 64  
Year to date cooling degree days 548  
Since 1 June cooling degree days 481  
Growing Degree Days 18 (Base 50)    
Moisture  
Dew Point 68 °F    
Average Humidity 98    
Maximum Humidity 100    
Minimum Humidity 89    
Precipitation  
Precipitation 0.00 in 0.12 in 1.03 in (2013)
Month to date precipitation 0.96  
Year to date precipitation 26.88  
Sea Level Pressure  
Sea Level Pressure 30.09 in    
Wind  
Wind Speed 7 mph (SSW)    
Max Wind Speed 10 mph    
Max Gust Speed -    
Visibility 8 miles    
Events      
T = Trace of Precipitation, MM = Missing Value Source: NWS Daily Summary

Daily Weather History Graph

Daily Weather History Graph

Search for Another Location

Airport:

Trip Planner

Search our weather history database for the weather conditions in past years. The results will help you decide how hot, cold, wet, or windy it might be!

Date:

Astronomy

Aug. 08, 2013 Rise Set
Actual Time 6:23 AM EDT 8:21 PM EDT
Civil Twilight 5:53 AM EDT 8:51 PM EDT
Nautical Twilight 5:18 AM EDT 9:26 PM EDT
Astronomical Twilight 4:39 AM EDT 10:05 PM EDT
Moon 8:08 AM EDT (8/8) 9:00 PM EDT (8/8)
Length of Visible Light 14h 57m
Length of Day
13h 58m
Waxing Crescent, 3% of the Moon is Illuminated
Aug 8
Waxing Crescent
Aug 14
First Quarter
Aug 20
Full
Aug 28
Last Quarter
Sep 5
New

Hourly Weather History & Observations

Time (EDT) Temp. Dew Point Humidity Pressure Visibility Wind Dir Wind Speed Gust Speed Precip Events Conditions
12:10 AM 62.6 °F - N/A% 30.11 in 7.0 mi South 6.9 mph - N/A   Scattered Clouds
12:30 AM 62.6 °F - N/A% 30.11 in 5.0 mi South 6.9 mph - N/A   Haze
12:50 AM 62.6 °F - N/A% 30.11 in 5.0 mi South 8.1 mph - N/A   Haze
1:10 AM 62.6 °F - N/A% 30.11 in 7.0 mi South 6.9 mph - N/A   Clear
1:30 AM 62.6 °F - N/A% 30.11 in 10.0 mi SSW 9.2 mph - N/A   Clear
1:50 AM 64.4 °F - N/A% 30.09 in 10.0 mi SSW 8.1 mph - N/A   Clear
2:10 AM 64.4 °F 64.4 °F 100% 30.09 in 10.0 mi SSW 10.4 mph - N/A   Clear
2:30 AM 64.4 °F 64.4 °F 100% 30.09 in 10.0 mi SSW 8.1 mph - N/A   Clear
3:10 AM 62.6 °F 62.6 °F 100% 30.09 in 10.0 mi SSW 8.1 mph - N/A   Clear
3:30 AM 62.6 °F - N/A% 30.08 in 10.0 mi South 8.1 mph - N/A   Scattered Clouds
3:50 AM 62.6 °F - N/A% 30.08 in 5.0 mi South 8.1 mph - N/A   Haze
4:10 AM 62.6 °F - N/A% 30.08 in 10.0 mi SSW 8.1 mph - N/A   Scattered Clouds
4:30 AM 62.6 °F - N/A% 30.08 in 10.0 mi SSW 8.1 mph - N/A   Overcast
4:50 AM 62.6 °F - N/A% 30.09 in 10.0 mi SSW 8.1 mph - N/A   Overcast
5:10 AM 62.6 °F 62.6 °F 100% 30.08 in 10.0 mi SSW 8.1 mph - N/A   Scattered Clouds
5:30 AM 62.6 °F 62.6 °F 100% 30.09 in 10.0 mi SSW 8.1 mph - N/A   Scattered Clouds
5:50 AM 64.4 °F 64.4 °F 100% 30.09 in 10.0 mi SSW 8.1 mph - N/A   Scattered Clouds
6:10 AM 62.6 °F 62.6 °F 100% 30.09 in 10.0 mi SW 5.8 mph - N/A   Clear
6:30 AM 62.6 °F 62.6 °F 100% 30.09 in 10.0 mi SW 6.9 mph - N/A   Mostly Cloudy
6:50 AM 64.4 °F 64.4 °F 100% 30.09 in 10.0 mi SW 5.8 mph - N/A   Overcast
7:10 AM 64.4 °F 64.4 °F 100% 30.09 in 10.0 mi SW 5.8 mph - N/A   Overcast
7:30 AM 64.4 °F 64.4 °F 100% 30.10 in 10.0 mi SSW 5.8 mph - N/A   Mostly Cloudy
7:50 AM 64.4 °F 64.4 °F 100% 30.11 in 10.0 mi SW 6.9 mph - N/A   Mostly Cloudy
8:10 AM 66.2 °F 66.2 °F 100% 30.10 in 10.0 mi SSW 5.8 mph - N/A   Mostly Cloudy
8:30 AM 66.2 °F 66.2 °F 100% 30.11 in 10.0 mi SSW 3.5 mph - N/A   Mostly Cloudy
8:50 AM 68.0 °F 68.0 °F 100% 30.11 in 10.0 mi SSW 4.6 mph - N/A   Mostly Cloudy
9:10 AM 68.0 °F 68.0 °F 100% 30.11 in 10.0 mi SSW 6.9 mph - N/A   Overcast
9:30 AM 68.0 °F 68.0 °F 100% 30.12 in 10.0 mi SSW 5.8 mph - N/A   Overcast
9:50 AM 68.0 °F 68.0 °F 100% 30.12 in 10.0 mi South 4.6 mph - N/A   Overcast
10:10 AM 66.2 °F 66.2 °F 100% 30.11 in 1.8 mi South 5.8 mph - N/A   Overcast
10:30 AM 68.0 °F - N/A% 30.11 in 7.0 mi South 6.9 mph - N/A   Overcast
10:50 AM 68.0 °F 68.0 °F 100% 30.11 in 10.0 mi South 5.8 mph - N/A   Overcast
11:10 AM 69.8 °F 69.8 °F 100% 30.11 in 10.0 mi SSW 5.8 mph - N/A   Overcast
11:30 AM 69.8 °F 69.8 °F 100% 30.11 in 10.0 mi South 8.1 mph - N/A   Mostly Cloudy
11:50 AM 71.6 °F 71.6 °F 100% 30.12 in 10.0 mi South 10.4 mph - N/A   Overcast
12:10 PM 69.8 °F 69.8 °F 100% 30.11 in 10.0 mi South 6.9 mph - N/A   Overcast
12:30 PM 71.6 °F 71.6 °F 100% 30.12 in 10.0 mi South 9.2 mph - N/A   Overcast
12:50 PM 71.6 °F 71.6 °F 100% 30.12 in 10.0 mi South 5.8 mph - N/A   Overcast
1:10 PM 71.6 °F 69.8 °F 94% 30.12 in 10.0 mi SSW 6.9 mph - N/A   Overcast
1:30 PM 71.6 °F 71.6 °F 100% 30.12 in 10.0 mi SSW 8.1 mph - N/A   Overcast
1:50 PM 71.6 °F 71.6 °F 100% 30.11 in 10.0 mi SW 9.2 mph - N/A   Mostly Cloudy
2:10 PM 71.6 °F 71.6 °F 100% 30.10 in 10.0 mi SW 6.9 mph - N/A   Mostly Cloudy
2:30 PM 73.4 °F 71.6 °F 94% 30.10 in 10.0 mi SSW 5.8 mph - N/A   Scattered Clouds
2:50 PM 75.2 °F 71.6 °F 89% 30.09 in 10.0 mi SSE 4.6 mph - N/A   Scattered Clouds
3:10 PM 73.4 °F 71.6 °F 94% 30.09 in 10.0 mi SSW 4.6 mph - N/A   Mostly Cloudy
3:30 PM 75.2 °F 71.6 °F 89% 30.08 in 10.0 mi SSW 4.6 mph - N/A   Mostly Cloudy
3:50 PM 75.2 °F 71.6 °F 89% 30.08 in 10.0 mi South 4.6 mph - N/A   Mostly Cloudy
4:10 PM 73.4 °F 71.6 °F 94% 30.07 in 10.0 mi SSE 6.9 mph - N/A   Overcast
4:30 PM 73.4 °F 71.6 °F 94% 30.08 in 10.0 mi SSW 6.9 mph - N/A   Mostly Cloudy
4:50 PM 71.6 °F 71.6 °F 100% 30.07 in 10.0 mi SSW 6.9 mph - N/A   Overcast
5:10 PM 71.6 °F 69.8 °F 94% 30.07 in 10.0 mi SW 5.8 mph - N/A   Mostly Cloudy
5:30 PM 71.6 °F 69.8 °F 94% 30.07 in 10.0 mi SSW 5.8 mph - N/A   Mostly Cloudy
5:50 PM 69.8 °F 69.8 °F 100% 30.08 in 10.0 mi SW 4.6 mph - N/A   Overcast
6:10 PM 69.8 °F 69.8 °F 100% 30.08 in 10.0 mi SW 5.8 mph - N/A   Overcast
6:30 PM 68.0 °F 68.0 °F 100% 30.08 in 2.5 mi SW 5.8 mph - N/A   Overcast
6:50 PM 68.0 °F - N/A% 30.07 in 5.0 mi South 5.8 mph - N/A   Haze
7:10 PM 68.0 °F - N/A% 30.07 in 7.0 mi South 6.9 mph - N/A   Overcast
7:30 PM 68.0 °F - N/A% 30.07 in 7.0 mi South 4.6 mph - N/A   Mostly Cloudy
7:50 PM 68.0 °F - N/A% 30.08 in 5.0 mi South 4.6 mph - N/A   Haze
8:10 PM 66.2 °F - N/A% 30.08 in 3.0 mi SSW 6.9 mph - N/A   Overcast
8:30 PM 66.2 °F - N/A% 30.08 in 4.0 mi SSW 5.8 mph - N/A   Haze
8:50 PM 66.2 °F - N/A% 30.07 in 5.0 mi South 6.9 mph - N/A   Haze
9:10 PM 66.2 °F - N/A% 30.08 in 5.0 mi South 5.8 mph - N/A   Haze
9:30 PM 66.2 °F - N/A% 30.09 in 7.0 mi South 6.9 mph - N/A   Mostly Cloudy
9:50 PM 66.2 °F - N/A% 30.08 in 10.0 mi South 5.8 mph - N/A   Mostly Cloudy
10:10 PM 66.2 °F - N/A% 30.09 in 7.0 mi South 5.8 mph - N/A   Overcast
10:30 PM 66.2 °F - N/A% 30.08 in 7.0 mi SSE 5.8 mph - N/A   Overcast
10:50 PM 66.2 °F - N/A% 30.07 in 7.0 mi South 3.5 mph - N/A   Overcast
11:10 PM 66.2 °F - N/A% 30.07 in 1.5 mi Calm Calm - N/A   Overcast
11:30 PM 66.2 °F - N/A% 30.06 in 4.0 mi Calm Calm - N/A   Haze
11:50 PM 66.2 °F - N/A% 30.06 in 1.5 mi South 4.6 mph - N/A   Overcast